Dewpoint
2 1 1 2 3 3 6 6 6 5 6 5 5 3 2 1 1 1 1 1 1 3 4 4 6 6 5 5 4 4 2 3 3 2 2 2 -0 -2 -0 -3 -6 -5 -5 -5
3 2 2 3 3 4 4 5 6 7 7 3 2 0 3 4 4 3 3 1 4 3 4 4 5 4 3 2 2 1 0 -1 -1 -1 -1 -1 -1 -5 -6 -4 -5 -5 -3 -6
5 4 4 6 5 6 7 6 6 7 5 3 3 3 4 5 5 5 4 4 3 3 3 3 1 1 0 -1 -3 -4 -5 -4 -3 -2 -3 -4 -3 -1 -1 -4 -4 -5 -7 -9
5 5 7 5 4 4 4 4 6 6 5 5 5 4 4 4 4 5 4 4 2 2 2 1 -1 -1 -2 -4 -6 -7 -6 -6 -5 -4 -3 -3 -6 -7 -8 -7 -6 -6 -8 -11
6 5 3 2 3 3 3 5 5 5 5 5 5 5 3 2 1 3 2 1 1 0 -0 -2 -4 -6 -7 -7 -7 -7 -7 -5 -3 -2 -3 -3 -2 -5 -8 -6 -6 -8 -12 -15
6 6 6 2 1 2 4 7 3 5 5 5 3 6 4 2 -1 -1 -2 -2 -3 -5 -6 -7 -7 -6 -6 -7 -6 -4 -4 -3 -3 -1 1 -2 -6 -6 -7 -4 -6 -15 -16 -15
6 6 4 1 2 2 6 5 3 4 5 2 3 3 2 1 0 -3 -4 -6 -6 -6 -5 -6 -6 -5 -4 -2 -0 0 1 1 1 -3 -8 -7 -7 -1 -3 -13 -16 -16 -14 -14
4 6 6 1 2 5 3 2 2 3 5 2 2 1 1 -1 -0 -0 -0 -1 -1 -2 -3 -2 -1 -0 1 1 2 1 -3 -8 -9 -7 -4 -1 -4 -13 -16 -17 -16 -14 -15 -20
5 4 2 2 2 2 2 2 2 2 5 4 2 2 0 -2 -5 -6 -6 -6 -5 -4 -3 -3 0 -0 -4 -8 -9 -8 -8 -7 -7 -4 -7 -11 -15 -17 -18 -15 -13 -18 -22 -22
5 3 2 1 2 1 1 0 1 2 4 4 3 1 1 0 -0 -2 -5 -6 -7 -8 -8 -8 -8 -7 -6 -7 -8 -8 -6 -4 -7 -9 -13 -17 -18 -17 -14 -14 -22 -24 -24 -26
3 2 2 2 1 1 0 -1 -1 0 2 2 1 -1 -2 -3 -5 -5 -7 -6 -2 -2 -3 -5 -7 -8 -9 -8 -5 -4 -6 -7 -10 -14 -18 -18 -16 -13 -17 -23 -23 -24 -27 -29
3 2 2 2 1 1 -0 -1 -1 -1 -0 -1 -0 -1 -2 -3 -5 -6 -7 -6 -6 -7 -8 -8 -8 -8 -8 -8 -7 -6 -6 -11 -16 -19 -18 -15 -13 -21 -23 -23 -25 -28 -28 -24
1 1 2 1 1 0 -0 -1 -1 -1 -1 -2 -2 -2 -2 -4 -5 -5 -5 -6 -7 -8 -7 -8 -8 -8 -8 -7 -6 -7 -12 -17 -19 -18 -13 -16 -23 -23 -24 -26 -26 -23 -19 -17
2 2 2 2 1 0 -1 -1 -2 -2 -2 -2 -2 -4 -3 -4 -5 -5 -6 -7 -8 -8 -8 -8 -8 -7 -7 -7 -10 -15 -18 -19 -15 -13 -21 -23 -23 -26 -28 -28 -25 -22 -20 -19
2 2 2 2 1 -0 -1 -1 -1 -2 -3 -3 -3 -3 -4 -4 -5 -6 -7 -8 -8 -8 -8 -8 -6 -6 -9 -12 -16 -19 -17 -13 -16 -23 -23 -24 -27 -29 -27 -24 -22 -21 -20 -19
2 1 1 1 0 -1 -1 -1 -1 -3 -3 -3 -3 -4 -4 -5 -6 -7 -8 -8 -7 -7 -7 -6 -6 -9 -13 -17 -18 -15 -12 -20 -23 -23 -24 -28 -29 -27 -24 -22 -21 -19 -18 -17
2 2 1 1 -0 -1 -1 -1 -2 -2 -3 -3 -3 -4 -5 -6 -8 -9 -8 -8 -7 -6 -6 -7 -9 -14 -18 -17 -13 -13 -21 -23 -23 -25 -28 -29 -26 -23 -21 -20 -19 -18 -17 -17
3 2 1 1 0 -0 -1 -2 -2 -3 -3 -2 -3 -4 -6 -6 -6 -7 -7 -6 -6 -6 -9 -11 -16 -18 -16 -12 -15 -22 -23 -23 -25 -28 -28 -26 -23 -22 -20 -19 -18 -17 -17 -17
2 2 1 1 1 0 -1 -1 -2 -1 -2 -2 -4 -5 -6 -6 -6 -6 -6 -6 -6 -8 -12 -17 -17 -15 -11 -17 -22 -22 -23 -25 -27 -28 -26 -23 -22 -20 -19 -18 -17 -17 -16 -16
2 1 1 2 1 0 -1 -2 -2 -2 -3 -4 -4 -5 -6 -6 -6 -6 -6 -7 -9 -12 -16 -17 -15 -11 -17 -22 -22 -23 -24 -27 -28 -26 -24 -23 -21 -19 -18 -17 -17 -16 -16 -16
1 1 1 1 0 -0 -1 -1 -2 -4 -4 -5 -5 -5 -6 -6 -6 -6 -7 -8 -11 -15 -16 -15 -11 -16 -21 -22 -22 -24 -26 -28 -26 -25 -24 -22 -20 -18 -17 -17 -17 -16 -16 -16
0 0 0 0 0 -1 -1 -2 -4 -5 -5 -6 -6 -7 -7 -6 -6 -7 -8 -10 -13 -16 -15 -11 -15 -21 -22 -22 -23 -25 -28 -27 -26 -24 -22 -20 -19 -18 -17 -17 -17 -16 -16 -16
-0 -0 -0 -1 -1 -1 -2 -3 -4 -6 -6 -7 -7 -7 -7 -7 -7 -7 -9 -12 -15 -15 -12 -14 -20 -22 -22 -22 -24 -27 -28 -27 -25 -22 -20 -19 -18 -17 -17 -17 -17 -17 -16 -16
-1 -1 -1 -2 -2 -2 -3 -5 -6 -7 -7 -7 -7 -7 -8 -8 -7 -8 -11 -14 -15 -12 -12 -18 -21 -22 -22 -23 -25 -28 -28 -26 -23 -20 -19 -18 -18 -18 -17 -17 -17 -16 -16 -16
-0 -1 -2 -2 -3 -3 -4 -5 -7 -7 -7 -8 -7 -7 -7 -8 -9 -10 -13 -14 -13 -11 -16 -21 -22 -22 -22 -24 -28 -28 -28 -24 -21 -19 -18 -18 -18 -17 -17 -17 -16 -16 -16 -16
-1 -1 -2 -3 -3 -4 -5 -6 -7 -7 -8 -8 -8 -8 -8 -9 -10 -11 -14 -14 -11 -15 -19 -21 -21 -22 -22 -26 -28 -28 -26 -22 -20 -19 -18 -18 -18 -18 -17 -16 -16 -16 -16 -14
-1 -1 -2 -2 -4 -4 -5 -6 -7 -7 -8 -8 -8 -8 -8 -9 -11 -13 -14 -11 -14 -18 -21 -21 -21 -22 -24 -28 -29 -27 -24 -21 -19 -19 -19 -18 -18 -17 -16 -16 -15 -14 -14 -12
Wind_Speed
9 12 11 10 12 13 13 16 12 23 24 26 22 22 22 19 17 21 24 26 16 6 4 7 11 19 25 28 28 28 26 28 31 32 31 33 32 30 25 22 20 15 11 7
5 11 14 15 15 13 15 17 18 18 21 15 22 16 13 20 19 19 19 9 6 5 9 12 19 24 27 27 24 24 28 34 35 36 36 34 30 26 23 19 15 10 5 4
4 7 11 7 7 10 7 10 9 9 15 15 15 11 10 10 17 17 16 4 9 11 16 19 23 25 25 26 27 29 34 37 37 36 33 29 26 23 20 16 12 8 4 2
4 8 2 2 7 7 9 6 4 13 13 12 12 8 20 18 17 16 13 11 14 18 19 18 18 20 25 29 32 34 36 37 33 30 28 25 22 19 16 13 8 4 1 5
2 3 7 7 3 3 3 5 6 8 9 11 16 6 11 20 18 14 14 16 18 17 16 17 20 23 27 32 33 33 32 31 29 27 25 23 20 15 11 7 4 0 4 7
2 3 3 1 3 4 6 3 3 4 7 11 13 3 3 13 14 14 15 13 14 14 18 23 25 26 32 33 33 31 30 29 27 22 16 14 14 12 8 3 1 2 5 8
5 3 7 5 8 8 4 4 2 2 5 9 4 5 6 11 14 15 18 19 20 23 26 28 29 28 31 31 29 28 25 19 19 18 19 15 11 5 3 1 1 4 7 10
4 4 6 3 8 1 3 7 9 2 2 10 12 11 13 17 16 21 22 20 21 25 26 26 29 29 29 27 23 23 23 23 21 17 14 9 7 5 2 2 4 7 9 10
7 5 8 18 4 4 7 7 4 2 4 10 13 12 13 18 21 22 23 23 25 28 28 24 22 24 27 27 26 26 23 20 18 14 12 8 5 3 2 5 7 9 11 13
4 6 4 6 7 8 6 5 2 5 5 7 11 13 14 16 16 20 23 27 27 27 28 28 26 26 26 26 24 23 19 15 13 10 8 6 3 4 6 8 9 12 14 16
5 8 1 6 7 5 5 5 4 6 8 8 9 14 17 19 20 21 22 19 22 25 25 25 24 26 25 22 17 14 13 12 10 7 5 4 5 7 9 10 12 14 16 17
3 3 1 2 4 3 2 5 6 8 9 10 11 16 18 20 20 22 21 19 21 24 26 27 25 22 19 15 11 10 10 9 7 5 5 5 7 8 9 12 15 16 15 16
2 3 2 1 2 1 3 5 7 10 11 15 15 17 19 22 20 20 19 20 24 26 26 25 22 20 16 13 10 8 7 7 5 4 5 6 7 10 12 12 13 13 14 16
5 6 2 4 4 4 5 10 12 13 14 15 16 17 20 22 21 21 22 25 26 26 24 21 19 16 13 10 7 7 5 4 3 5 5 7 10 12 13 14 16 16 15 16
7 7 7 7 8 9 10 12 15 15 16 17 17 20 22 24 24 25 27 27 26 24 22 18 15 14 11 8 6 4 3 3 4 5 7 10 11 13 14 15 16 17 18 17
4 8 7 8 10 12 13 14 14 18 18 20 22 22 23 25 27 28 26 24 23 22 19 16 13 12 9 6 4 3 3 4 5 7 10 12 13 14 15 16 16 17 18 18
4 5 10 12 13 16 15 14 15 19 21 22 23 25 27 28 29 27 25 22 19 19 16 13 11 10 7 5 3 3 3 4 7 10 12 13 13 15 15 16 17 18 18 18
10 9 9 13 17 18 18 17 19 21 23 23 25 28 29 29 28 26 24 22 20 18 15 13 10 8 5 3 2 2 4 7 10 11 12 13 14 15 16 17 18 18 18 19
11 8 6 9 16 19 20 21 22 22 23 25 28 29 27 25 24 23 22 19 17 16 16 12 9 6 4 2 2 4 6 9 11 12 13 14 15 16 17 17 18 18 19 20
6 6 7 11 16 20 22 23 23 24 25 27 27 26 26 24 22 22 20 18 15 13 13 10 7 5 3 2 3 6 8 10 12 12 14 16 16 17 17 17 18 18 18 19
2 5 9 14 17 18 22 23 25 27 29 27 26 26 25 25 23 21 20 19 17 14 11 9 6 4 2 2 5 8 10 11 12 14 15 16 16 17 17 17 17 17 18 19
3 4 8 12 16 20 22 24 26 29 29 27 26 25 26 25 23 21 16 12 16 14 11 7 5 3 1 4 7 9 10 11 13 15 15 16 16 17 17 17 17 17 17 16
5 4 7 11 16 19 22 24 27 27 28 27 26 25 25 24 22 21 21 17 15 12 9 7 4 1 2 5 8 10 11 12 14 15 16 16 16 17 17 17 17 16 15 14
6 5 7 11 15 21 24 25 27 28 26 25 24 23 23 24 22 18 14 16 15 11 9 6 4 1 4 7 9 10 11 13 15 15 16 17 17 16 16 17 16 14 13 12
7 6 9 13 17 21 24 27 28 28 27 25 24 24 22 20 17 19 16 16 14 10 9 6 3 2 5 8 9 10 12 14 15 16 17 17 16 16 15 15 15 14 13 10
8 7 9 12 18 21 25 27 29 30 29 29 26 24 23 21 18 16 16 16 13 11 8 5 3 3 6 9 9 11 13 14 15 16 17 16 16 15 15 14 13 12 11 9
9 10 11 15 18 19 23 27 30 32 30 28 26 27 25 22 19 17 18 15 12 10 7 5 3 5 8 9 10 12 13 14 15 16 16 15 15 15 14 13 12 11 11 11
Wind_Direction
280 289 294 286 272 260 237 247 251 279 279 291 299 291 286 283 245 255 260 267 246 213 210 208 178 159 160 163 177 185 184 178 168 165 166 168 169 172 173 166 167 171 175 191
281 272 266 256 258 258 263 268 267 269 277 276 274 298 13 346 332 317 320 268 153 176 168 188 177 166 163 166 175 182 171 163 161 161 165 168 168 161 158 161 160 165 185 208
263 324 306 270 229 226 236 236 269 284 292 301 303 321 339 297 287 286 287 247 182 165 174 165 160 162 161 162 165 166 162 160 161 163 163 160 159 159 156 166 161 169 180 259
279 298 276 185 209 217 256 276 254 274 293 311 300 109 30 357 332 281 271 190 162 169 170 170 171 174 174 168 163 160 158 156 155 153 148 145 144 148 158 156 150 148 237 292
277 289 268 311 89 285 259 276 231 278 314 323 332 129 33 15 35 76 116 135 151 165 171 169 169 167 161 153 156 156 149 142 139 141 142 146 150 151 154 148 145 145 316 304
4 318 281 50 76 128 97 256 222 248 337 341 360 33 1 32 53 79 104 124 140 142 139 139 133 147 146 148 148 140 135 135 136 138 145 147 147 150 146 135 27 296 310 312
222 253 282 302 322 141 2 286 30 26 341 32 68 76 64 72 68 100 110 114 126 131 133 142 143 146 138 137 136 134 134 136 137 141 145 148 139 140 140 147 322 320 325 325
187 209 265 210 342 358 300 351 348 316 78 106 110 100 97 95 89 92 96 111 115 132 132 134 136 142 137 138 136 132 138 146 144 142 137 144 141 129 114 10 338 331 330 327
198 215 267 323 319 42 343 339 335 293 172 126 111 112 124 126 123 121 121 117 114 117 122 129 137 139 137 136 135 136 142 144 143 138 129 123 110 83 11 345 340 337 331 325
177 236 245 37 41 15 13 24 340 183 188 146 125 125 121 119 122 131 138 141 144 142 139 138 138 137 132 136 141 142 137 129 124 119 110 100 73 19 353 349 341 332 323 320
251 275 188 80 17 2 27 51 77 140 173 175 156 135 133 128 126 124 123 135 139 135 132 131 136 134 133 135 135 134 127 119 113 106 95 60 20 1 346 341 330 327 327 326
239 153 89 92 359 354 46 83 107 130 142 151 162 149 147 137 137 143 148 144 141 136 133 134 137 132 129 128 129 121 118 113 100 80 45 14 354 346 339 334 332 331 333 337
250 158 104 219 305 271 133 131 132 135 142 138 140 147 148 144 149 152 147 147 145 140 139 139 138 134 130 127 126 116 105 97 74 38 8 356 349 341 336 335 332 329 328 325
240 240 206 234 240 200 160 141 137 133 139 143 146 150 148 145 149 150 146 145 146 146 143 142 138 131 128 126 119 111 98 77 37 14 1 350 343 338 335 335 336 338 336 334
219 231 248 208 198 174 165 155 145 139 140 138 145 146 150 147 145 144 146 150 150 147 143 144 143 134 132 131 123 104 77 43 22 6 354 344 341 340 338 338 337 335 334 334
208 203 223 206 185 173 164 157 151 146 149 145 148 150 149 148 146 146 148 150 151 147 146 148 144 138 138 134 121 88 53 31 7 353 349 346 342 340 339 336 336 336 337 337
236 208 199 200 192 176 176 171 167 156 154 156 154 152 151 147 146 147 148 151 152 147 144 145 146 144 144 129 90 56 34 7 355 353 348 343 342 341 338 337 337 337 337 337
265 274 280 239 196 182 178 179 171 165 164 159 156 154 154 156 153 151 152 154 152 147 146 149 147 143 135 115 79 37 12 1 353 347 345 344 343 341 340 339 338 336 336 338
234 247 242 211 198 191 186 177 176 174 165 163 160 160 161 159 157 155 155 156 157 157 152 154 150 144 141 112 49 11 358 352 348 346 345 345 344 342 340 339 339 339 338 339
220 209 197 189 192 195 185 184 180 173 168 167 168 165 163 162 163 160 158 156 156 160 157 156 158 157 136 82 16 357 351 348 346 346 347 347 344 342 344 342 340 339 340 342
227 204 197 196 194 193 195 191 183 175 173 176 175 172 170 166 170 169 165 164 162 166 168 168 165 155 127 25 0 349 345 345 346 347 347 345 343 344 344 342 342 342 344 344
303 223 203 199 196 191 193 190 186 181 177 176 177 176 174 171 169 167 170 182 170 171 174 173 167 156 51 357 348 342 343 346 347 346 345 345 345 344 342 344 345 345 343 342
303 259 220 206 199 192 187 189 187 185 182 181 179 180 181 180 178 176 174 175 179 176 178 176 174 182 344 341 340 341 342 346 346 344 345 345 343 341 342 343 343 338 336 340
301 261 223 208 200 194 188 185 186 186 186 182 184 185 186 180 176 179 184 178 178 182 181 183 188 258 328 336 337 338 344 346 341 342 345 343 340 339 340 338 334 330 339 340
303 269 234 219 208 200 195 190 187 184 183 181 181 184 185 187 195 181 180 180 184 186 189 191 208 286 323 331 333 339 344 339 338 342 343 340 337 338 338 335 328 334 344 343
299 262 237 226 220 210 201 194 190 185 183 180 180 183 182 184 185 187 183 185 189 189 191 199 235 303 324 328 334 340 338 335 338 341 340 336 335 338 336 334 332 342 340 334
288 264 244 226 224 220 210 203 196 188 187 185 185 185 186 186 185 186 185 189 191 193 198 216 265 312 323 327 333 336 333 334 338 339 337 334 336 336 335 335 340 346 339 331
Height
1446 1442 1443 1444 1442 1441 1450 1444 1440 1418 1415 1404 1404 1396 1388 1384 1384 1387 1386 1385 1388 1388 1390 1392 1392 1392 1393 1394 1400 1405 1411 1415 1418 1422 1429 1436 1441 1447 1451 1456 1461 1465 1468 1471
1454 1438 1440 1441 1435 1432 1429 1425 1423 1417 1408 1402 1396 1391 1388 1385 1387 1384 1381 1382 1383 1385 1388 1391 1391 1393 1392 1395 1401 1407 1413 1416 1419 1423 1429 1436 1442 1447 1453 1458 1460 1465 1466 1469
1444 1435 1435 1434 1422 1419 1418 1416 1416 1412 1402 1396 1393 1390 1388 1386 1384 1382 1382 1381 1382 1385 1386 1388 1391 1394 1396 1399 1403 1409 1415 1417 1421 1425 1432 1438 1444 1448 1451 1455 1458 1462 1465 1467
1447 1439 1435 1411 1406 1408 1409 1407 1410 1406 1399 1396 1392 1390 1387 1386 1381 1377 1378 1379 1381 1383 1385 1388 1392 1395 1399 1402 1407 1413 1417 1419 1424 1429 1436 1442 1448 1453 1457 1458 1458 1461 1464 1465
1445 1439 1422 1407 1407 1408 1408 1407 1405 1405 1399 1393 1388 1388 1389 1387 1382 1377 1378 1380 1382 1384 1386 1389 1393 1398 1402 1407 1411 1417 1421 1423 1429 1434 1441 1445 1448 1452 1459 1458 1459 1461 1462 1463
1447 1445 1429 1404 1404 1404 1406 1409 1403 1404 1399 1395 1389 1388 1395 1392 1389 1386 1385 1386 1386 1388 1391 1395 1400 1404 1407 1411 1417 1423 1426 1429 1435 1439 1443 1446 1450 1452 1456 1458 1459 1460 1460 1460
1444 1441 1427 1406 1404 1403 1408 1412 1402 1401 1399 1397 1396 1398 1398 1396 1393 1392 1391 1392 1394 1395 1397 1401 1404 1409 1414 1419 1422 1424 1431 1434 1436 1442 1447 1451 1453 1454 1457 1458 1458 1458 1457 1457
1439 1438 1436 1404 1402 1407 1404 1402 1401 1399 1399 1399 1399 1400 1401 1399 1399 1399 1396 1396 1397 1400 1405 1406 1409 1412 1416 1422 1423 1426 1428 1440 1446 1448 1449 1451 1454 1456 1456 1456 1456 1456 1455 1454
1423 1419 1404 1402 1402 1402 1401 1401 1400 1399 1399 1399 1399 1401 1403 1404 1404 1406 1406 1407 1409 1410 1412 1416 1419 1422 1424 1429 1432 1436 1440 1445 1447 1448 1450 1452 1454 1454 1455 1455 1454 1454 1453 1451
1412 1402 1401 1401 1402 1400 1400 1399 1399 1398 1399 1400 1400 1401 1404 1406 1407 1408 1410 1411 1412 1415 1417 1420 1425 1428 1431 1433 1437 1440 1443 1445 1447 1449 1450 1452 1453 1454 1454 1454 1453 1452 1451 1449
1406 1401 1400 1401 1401 1401 1399 1398 1398 1398 1400 1400 1401 1404 1406 1409 1411 1413 1415 1416 1418 1419 1421 1424 1429 1432 1434 1437 1440 1443 1445 1446 1448 1449 1451 1452 1453 1453 1453 1453 1452 1450 1448 1446
1406 1400 1399 1401 1400 1401 1399 1399 1398 1398 1400 1400 1401 1403 1407 1410 1413 1414 1416 1419 1422 1424 1426 1429 1432 1435 1438 1441 1444 1445 1446 1448 1450 1451 1452 1453 1453 1453 1452 1451 1449 1447 1445 1443
1399 1399 1399 1399 1399 1399 1399 1399 1400 1400 1401 1402 1403 1405 1407 1410 1414 1416 1419 1422 1425 1427 1430 1433 1436 1439 1442 1444 1446 1447 1449 1450 1452 1453 1453 1453 1453 1452 1451 1449 1447 1445 1443 1441
1397 1398 1398 1398 1399 1399 1399 1400 1400 1401 1403 1403 1405 1408 1408 1411 1415 1418 1422 1425 1428 1431 1434 1437 1440 1442 1445 1447 1449 1450 1451 1452 1453 1453 1453 1453 1452 1451 1449 1447 1445 1443 1441 1438
1395 1395 1396 1396 1398 1399 1400 1400 1401 1403 1404 1405 1408 1410 1411 1413 1417 1421 1425 1428 1431 1434 1438 1441 1443 1445 1448 1450 1451 1452 1453 1454 1454 1453 1453 1453 1451 1449 1447 1445 1442 1440 1437 1435
1393 1394 1395 1396 1397 1398 1400 1401 1401 1403 1406 1407 1409 1412 1415 1418 1421 1424 1428 1432 1435 1437 1441 1443 1446 1448 1450 1452 1453 1454 1454 1454 1454 1454 1452 1451 1449 1447 1445 1442 1440 1437 1435 1432
1392 1393 1394 1395 1396 1397 1400 1402 1403 1404 1407 1409 1411 1415 1418 1421 1425 1428 1432 1436 1439 1441 1444 1447 1448 1450 1452 1453 1454 1454 1455 1455 1454 1452 1451 1449 1447 1445 1442 1440 1438 1435 1433 1430
1391 1391 1391 1392 1394 1395 1399 1401 1403 1405 1407 1411 1414 1417 1421 1424 1427 1431 1434 1438 1441 1443 1447 1449 1451 1452 1453 1454 1455 1455 1455 1454 1453 1451 1450 1447 1445 1443 1440 1438 1435 1433 1430 1427
1388 1390 1390 1391 1392 1395 1398 1400 1403 1406 1409 1413 1416 1419 1424 1427 1430 1434 1437 1440 1443 1445 1448 1450 1452 1453 1455 1456 1456 1455 1454 1453 1452 1450 1448 1446 1443 1441 1438 1436 1433 1431 1428 1424
1388 1389 1389 1390 1393 1395 1398 1401 1403 1406 1410 1414 1417 1421 1425 1429 1432 1435 1439 1442 1445 1447 1449 1451 1453 1454 1455 1455 1455 1454 1453 1452 1450 1448 1446 1443 1441 1439 1436 1434 1431 1429 1426 1423
1388 1388 1389 1390 1392 1394 1397 1400 1403 1406 1409 1414 1418 1422 1425 1429 1433 1436 1439 1441 1445 1447 1449 1451 1453 1454 1454 1454 1453 1453 1452 1450 1448 1446 1444 1441 1439 1436 1434 1432 1429 1426 1423 1420
1389 1389 1389 1390 1391 1393 1396 1399 1403 1406 1409 1414 1418 1422 1425 1429 1433 1437 1441 1444 1445 1447 1450 1451 1452 1453 1453 1453 1452 1451 1450 1448 1446 1444 1442 1439 1436 1434 1432 1429 1426 1424 1421 1418
1390 1390 1390 1391 1391 1394 1396 1399 1402 1406 1409 1413 1417 1421 1425 1428 1432 1435 1438 1442 1445 1447 1449 1450 1451 1452 1452 1451 1450 1449 1448 1446 1444 1442 1439 1436 1434 1431 1429 1426 1424 1421 1419 1416
1391 1391 1391 1392 1393 1394 1396 1399 1402 1406 1410 1414 1418 1422 1424 1428 1433 1437 1440 1441 1444 1446 1448 1449 1450 1451 1450 1449 1448 1447 1445 1443 1441 1439 1436 1434 1431 1429 1426 1424 1422 1419 1416 1413
1390 1391 1391 1392 1393 1395 1397 1398 1402 1406 1409 1413 1417 1421 1425 1429 1434 1435 1438 1441 1443 1445 1447 1448 1449 1449 1448 1447 1446 1444 1442 1441 1439 1436 1434 1431 1429 1426 1424 1421 1419 1416 1412 1411
1390 1390 1391 1393 1393 1394 1397 1399 1401 1404 1407 1410 1415 1420 1425 1429 1432 1435 1438 1440 1442 1444 1445 1446 1447 1446 1446 1445 1443 1441 1440 1438 1436 1433 1431 1429 1426 1423 1421 1419 1416 1413 1411 1409
1389 1388 1389 1390 1392 1394 1396 1398 1400 1402 1406 1411 1414 1419 1424 1427 1431 1434 1436 1439 1441 1443 1444 1445 1445 1444 1443 1442 1440 1439 1437 1435 1432 1430 1428 1425 1423 1421 1418 1416 1413 1410 1408 1407